Regional Weather Roundup
Issued by NWS

Home | Current Version | Previous Version | Text Only | Print | Product List | Glossary Off
Versions: 1 2 3 4 5 6 7 8 9 10 11 12 13 14 15 16 17 18 19 20 21 22 23 24 25 26 27 28 29 30 31 32 33 34 35 36 37 38 39 40 41 42 43 44 45 46 47 48 49 50

000
ASUS43 KTOP 192008
RWRKS

WEATHER ROUNDUP FOR KANSAS
NATIONAL WEATHER SERVICE GOODLAND KS
300 PM CDT SAT APR 19 2014

NOTE:  "FAIR" INDICATES FEW OR NO CLOUDS BELOW 12,000 FEET WITH NO
SIGNIFICANT WEATHER AND/OR OBSTRUCTIONS TO VISIBILITY.

KSZ001>006-013>018-027>032-041>047-192100-
NORTHWEST KANSAS

CITY           SKY/WX    TMP DP  RH WIND       PRES   REMARKS
GOODLAND       PTSUNNY   70  47  43 NE24G32   29.96F
HAYS           MOSUNNY   81  50  34 S23G33    29.91S
HILL CITY      PTSUNNY   80  46  30 S9        29.90F
RUSSELL        MOSUNNY   84  49  29 S28G36    29.91F
$$

KSZ061>065-074>080-084>089-192100-
SOUTHWEST KANSAS

CITY           SKY/WX    TMP DP  RH WIND       PRES   REMARKS
DODGE CITY     CLOUDY    73  47  39 S24G30    29.98R
ELKHART          N/A     80  45  29 S21         N/A
GARDEN CITY    CLOUDY    75  49  39 S21       29.95F
GREAT BEND     PTSUNNY   79  50  36 S29G38    29.93S
LIBERAL        PTSUNNY   81  48  32 S17G29    29.99F
PRATT          PTSUNNY   79  46  31 S25G32    30.00S
$$

KSZ066>073-081>083-090>101-192100-
SOUTHEAST KANSAS

CITY           SKY/WX    TMP DP  RH WIND       PRES   REMARKS
CHANUTE        SUNNY     76  44  32 S17G29    30.11F
COFFEYVILLE    SUNNY     77  44  30 S20G26    30.12F
HUTCHINSON     CLOUDY    79  49  34 S31G39    29.99F
MEDICINE LODGE   N/A     82  51  34 S28G36    29.99F
NEWTON         PTSUNNY   75  46  35 S22G32    30.06F
PARSONS        SUNNY     78  46  32 S12G20    30.12F
WICHITA INTL   PTSUNNY   80  48  32 S22G31    30.03F
WICHITA JABRA  MOSUNNY   79  48  33 S24G39    30.03F
WICHITA MCCONL MOSUNNY   79  47  31 S23G37    30.04F
WINFIELD       SUNNY     79  48  33 S21G26    30.07F
$$

KSZ007>012-019>026-033>040-048>060-102>105-192100-
NORTHEAST KANSAS

CITY           SKY/WX    TMP DP  RH WIND       PRES   REMARKS
CONCORDIA      PTSUNNY   80  49  33 S26G46    29.96F
EMPORIA        SUNNY     77  42  28 S20G33    30.05F
LAWRENCE       MOSUNNY   79  45  29 S20G25    30.08F
MANHATTAN      SUNNY     81  46  29 S20G36    29.99F
OLATHE IND     MOSUNNY   76  45  33 S21G31    30.11F
OLATHE EXE     MOSUNNY   73  45  36 S16       30.11F
SALINA         PTSUNNY   79  49  34 S22G39    29.98F
TOPEKA BILLARD SUNNY     79  46  31 S18G29    30.06F
TOPEKA FORBES  SUNNY     77  45  32 S26G35    30.06F
$$



USA.gov is the U.S. government's official web portal to all federal, state and local government web resources and services.